Home   Weather   Maastricht   Past weeks

Flag for Netherlands Past Weather in Maastricht, Netherlands — Yesterday and Last 2 Weeks

Now
66 °F

Scattered clouds.


Feels Like: 66 °F
Forecast: 53 / 67 °F
Wind: 6 mph from Northwest

Location: Maastricht Airport Zuid Limburg

Current Time: Aug 20, 2017 at 7:34:30 pm

Latest Report: Aug 20, 2017 at 6:55 pm


Visibility: N/A

Pressure: 30.24 "Hg

Humidity: 56%

Dew Point: 50 °F

Location of MaastrichtLocation

Past Weather in Maastricht — Graph

°F

Maastricht Temperature Yesterday

Maximum temperature yesterday: 66 °F (at 1:55 pm)
Minimum temperature yesterday: 54 °F (at 2:55 am)
Average temperature yesterday: 58 °F

High & Low Weather Summary for the Past Weeks

 TemperatureHumidityPressure
High77 °F (Aug 14, 2:55 pm)100% (Aug 5, 11:25 pm)30.24 "Hg (Aug 5, 11:25 pm)
Low48 °F (Aug 6, 5:55 am)41% (Aug 7, 12:55 pm)29.74 "Hg (Aug 8, 1:25 pm)
Average62 °F81%30.05 "Hg
* Reported Aug 5 5:25 pm — Aug 20 5:55 pm, Maastricht. Weather by CustomWeather, © 2017

Note: Actual official high and low records may vary slightly from our data, if they occured in-between our weather recording intervals... More about our weather records

Advertising

Maastricht Weather History for the Previous 24 Hours

Scroll right to see more
 ConditionsComfort  
Time TempWeatherWind HumidityBarometerVisibility
5:55 pm
Sun, Aug 20
64 °FClear.7 mph60%30.24 "HgN/A
5:25 pm64 °FClear.8 mph60%30.24 "HgN/A
4:55 pm64 °FClear.8 mph60%30.24 "HgN/A
4:25 pm66 °FClear.10 mph56%30.24 "HgN/A
3:55 pm66 °FClear.6 mph60%30.24 "HgN/A
3:25 pm66 °FPartly sunny.7 mph56%30.24 "HgN/A
2:55 pm64 °FClear.8 mph60%30.24 "HgN/A
2:25 pm64 °FClear.10 mph60%30.24 "HgN/A
1:55 pm64 °FPassing clouds.10 mph64%30.24 "HgN/A
1:25 pm63 °FClear.8 mph68%30.24 "HgN/A
12:55 pm61 °FBroken clouds.10 mph72%30.24 "HgN/A
12:25 pm63 °FBroken clouds.10 mph68%30.24 "HgN/A
11:55 am63 °FPassing clouds.9 mph77%30.24 "HgN/A
11:25 am59 °FBroken clouds.9 mph82%30.24 "HgN/A
10:55 am61 °FPassing clouds.9 mph77%30.21 "HgN/A
10:25 am59 °FScattered clouds.12 mph82%30.21 "HgN/A
9:55 am57 °FPassing clouds.14 mph88%30.21 "HgN/A
9:25 am55 °FClear.12 mph88%30.21 "HgN/A
8:55 am55 °FPassing clouds.12 mph94%30.21 "HgN/A
8:25 am54 °FClear.9 mph94%30.18 "HgN/A
7:55 am54 °FPassing clouds.9 mph94%30.18 "HgN/A
7:25 am52 °FClear.9 mph100%30.18 "HgN/A
6:55 am52 °FCool.9 mph94%30.18 "HgN/A
6:25 am52 °FPassing clouds.8 mph94%30.15 "HgN/A
5:55 am52 °FPassing clouds.9 mph100%30.15 "HgN/A
5:25 am52 °FPassing clouds.9 mph100%30.15 "HgN/A
4:55 am52 °FClear.10 mph100%30.15 "HgN/A
4:25 am54 °FClear.10 mph88%30.15 "HgN/A
3:55 am52 °FPassing clouds.9 mph94%30.15 "HgN/A
3:25 am54 °FCool.10 mph88%30.15 "HgN/A
2:55 am54 °FClear.9 mph88%30.12 "HgN/A
1:55 am55 °FClear.10 mph82%30.12 "HgN/A
1:25 am54 °FCool.10 mph88%30.15 "HgN/A
12:55 am54 °FCool.10 mph88%30.15 "HgN/A
12:25 am55 °FClear.10 mph82%30.12 "HgN/A
11:55 pm
Sat, Aug 19
54 °FClear.8 mph88%30.12 "HgN/A
11:25 pm55 °FCool.8 mph88%30.12 "HgN/A
10:55 pm55 °FClear.8 mph94%30.12 "HgN/A
10:25 pm55 °FPassing clouds.6 mph94%30.12 "HgN/A
9:55 pm59 °FPassing clouds.9 mph88%30.12 "HgN/A
9:25 pm59 °FPassing clouds.5 mph88%30.09 "HgN/A
8:55 pm59 °FPassing clouds.5 mph88%30.09 "HgN/A
8:25 pm59 °FCool.7 mph82%30.09 "HgN/A
7:55 pm63 °FClear.8 mph77%30.09 "HgN/A
7:25 pm63 °FClear.7 mph77%30.09 "HgN/A
Weather by CustomWeather, © 2017

See weather overviewHow to use our weather pages